Location: Geçitköy
(36.7327°N, 29.8010°E)
Time: 19:23:21
(UTC+00:00)

SL-4 R/B - Pass Details

Date: 12 January 2026
Orbit: 384 x 519 km, 51.6° (Epoch: 11 February)

Event Time Altitude Azimuth Distance (km) Brightness Sun altitude
Rises 17:08:17 0° 306° (NW) 2,622 6.1 -24.2°
Reaches altitude 10° 17:10:34 10° 301° (WNW) 1,717 5.2 -24.6°
Enters shadow 17:14:02 48° 244° (WSW) 654 2.7 -25.3°
